Location: Colonia Mina de C?rbuni
(46.1667°N, 22.7167°E)
Time: 11:52:57
(UTC+00:00)

Vanguard 1 - Pass Details

Date: 21 April 2024
Orbit: 652 x 3825 km, 34.2° (Epoch: 25 May)

Event Time Altitude Azimuth Distance (km) Brightness Sun altitude
Exits shadow 00:51:45 19° 188° (S) 6,133 13.6 -23.5°
Maximum altitude 01:04:01 30° 148° (SSE) 4,895 13.4 -22.1°
Drops below altitude 10° 01:17:46 10° 95° (E) 5,366 14.3 -20.5°
Sets 01:21:53 0° 86° (E) 5,958 14.9 -20.0°
